When you browse on this site, cookies collect data to enhance your experience and personalize the content and advertising you see.
Visit our Privacy Policy to learn more. By continuing to use the site, you agree to this use of cookies and data.
EN

Hourly Weather Ashtarak

Today, 4 July, Saturday

Time Temperature Precipitation Wind Pressure Humidity
00:00 +20°C° 0.1 mm 2 mps 660 mmHg 62%
01:00 +19°C° 0 mm 2 mps 659 mmHg 64%
02:00 +19°C° 0 mm 2 mps 659 mmHg 65%
03:00 +18°C° 0 mm 2 mps 659 mmHg 67%
04:00 +19°C° 0 mm 2 mps 659 mmHg 66%
05:00 +21°C° 0 mm 1 mps 659 mmHg 65%
06:00 +21°C° 0 mm 1 mps 660 mmHg 64%
07:00 +23°C° 0.1 mm 1 mps 660 mmHg 60%
08:00 +25°C° 0.1 mm 1 mps 660 mmHg 55%
09:00 +26°C° 0.1 mm 1 mps 660 mmHg 50%
10:00 +28°C° 0.3 mm 1 mps 660 mmHg 46%
11:00 +29°C° 0.3 mm 1 mps 660 mmHg 43%
12:00 +30°C° 0.3 mm 1 mps 660 mmHg 40%
13:00 +30°C° 0.2 mm 1 mps 660 mmHg 37%
14:00 +31°C° 0.2 mm 1 mps 660 mmHg 35%
15:00 +31°C° 0.2 mm 1 mps 659 mmHg 33%
16:00 +30°C° 0.2 mm 1 mps 659 mmHg 38%
17:00 +29°C° 0.2 mm 2 mps 659 mmHg 44%
18:00 +27°C° 0.2 mm 2 mps 659 mmHg 49%
19:00 +26°C° 0.2 mm 2 mps 659 mmHg 53%
20:00 +24°C° 0.2 mm 2 mps 659 mmHg 57%
21:00 +21°C° 0.2 mm 2 mps 659 mmHg 61%
22:00 +21°C° 0.1 mm 2 mps 658 mmHg 62%
23:00 +20°C° 0.1 mm 2 mps 658 mmHg 63%

Tomorrow, 5 July, Sunday

Time Temperature Precipitation Wind Pressure Humidity
00:00 +19°C° 0.1 mm 2 mps 658 mmHg 65%
01:00 +19°C° 0.1 mm 2 mps 657 mmHg 66%
02:00 +18°C° 0.1 mm 2 mps 657 mmHg 68%
03:00 +18°C° 0.1 mm 2 mps 657 mmHg 69%
04:00 +18°C° 0 mm 2 mps 657 mmHg 68%
05:00 +19°C° 0 mm 2 mps 657 mmHg 66%
06:00 +21°C° 0 mm 1 mps 657 mmHg 65%
07:00 +22°C° 0.1 mm 1 mps 658 mmHg 60%
08:00 +24°C° 0.1 mm 1 mps 658 mmHg 55%
09:00 +26°C° 0.1 mm 1 mps 658 mmHg 51%
10:00 +27°C° 0.4 mm 1 mps 658 mmHg 48%
11:00 +28°C° 0.4 mm 1 mps 658 mmHg 45%
12:00 +29°C° 0.4 mm 2 mps 658 mmHg 42%
13:00 +30°C° 0.3 mm 2 mps 658 mmHg 42%
14:00 +30°C° 0.3 mm 3 mps 657 mmHg 41%
15:00 +30°C° 0.3 mm 4 mps 657 mmHg 41%
16:00 +29°C° 0.4 mm 4 mps 657 mmHg 45%
17:00 +28°C° 0.4 mm 5 mps 657 mmHg 49%
18:00 +27°C° 0.4 mm 5 mps 656 mmHg 53%
19:00 +25°C° 0.5 mm 5 mps 656 mmHg 57%
20:00 +22°C° 0.5 mm 4 mps 656 mmHg 62%
21:00 +21°C° 0.5 mm 4 mps 656 mmHg 67%
22:00 +20°C° 0.1 mm 3 mps 656 mmHg 67%
23:00 +20°C° 0.1 mm 3 mps 656 mmHg 68%

Day after tomorrow, 6 July, Monday

Time Temperature Precipitation Wind Pressure Humidity
00:00 +19°C° 0.1 mm 2 mps 656 mmHg 68%
01:00 +19°C° 0 mm 2 mps 656 mmHg 67%
02:00 +18°C° 0 mm 2 mps 656 mmHg 66%
03:00 +18°C° 0 mm 2 mps 656 mmHg 66%
04:00 +18°C° 0 mm 2 mps 656 mmHg 64%
05:00 +19°C° 0 mm 2 mps 656 mmHg 62%
06:00 +19°C° 0 mm 2 mps 656 mmHg 60%
07:00 +22°C° 0 mm 1 mps 657 mmHg 54%
08:00 +24°C° 0 mm 1 mps 657 mmHg 49%
09:00 +26°C° 0 mm 1 mps 657 mmHg 43%
10:00 +27°C° 0 mm 1 mps 657 mmHg 41%
11:00 +28°C° 0 mm 2 mps 657 mmHg 38%
12:00 +30°C° 0 mm 2 mps 657 mmHg 36%
13:00 +30°C° 0.1 mm 2 mps 657 mmHg 35%
14:00 +30°C° 0.1 mm 3 mps 657 mmHg 35%
15:00 +31°C° 0.1 mm 3 mps 657 mmHg 35%
16:00 +30°C° 0.1 mm 4 mps 657 mmHg 39%
17:00 +29°C° 0.1 mm 4 mps 657 mmHg 43%
18:00 +28°C° 0.1 mm 5 mps 656 mmHg 47%
19:00 +27°C° 0 mm 4 mps 656 mmHg 49%
20:00 +25°C° 0 mm 4 mps 657 mmHg 51%
21:00 +22°C° 0 mm 4 mps 657 mmHg 54%
22:00 +22°C° 0 mm 3 mps 656 mmHg 53%
23:00 +21°C° 0 mm 3 mps 656 mmHg 53%

7 July, Tuesday

Time Temperature Precipitation Wind Pressure Humidity
00:00 +20°C° 0 mm 2 mps 656 mmHg 53%
01:00 +20°C° 0 mm 2 mps 656 mmHg 53%
02:00 +19°C° 0 mm 2 mps 656 mmHg 54%
03:00 +19°C° 0 mm 2 mps 656 mmHg 54%
04:00 +21°C° 0 mm 1 mps 656 mmHg 55%
05:00 +21°C° 0 mm 1 mps 656 mmHg 56%
06:00 +22°C° 0 mm 1 mps 656 mmHg 56%
07:00 +24°C° 0 mm 1 mps 657 mmHg 51%
08:00 +25°C° 0 mm 1 mps 657 mmHg 45%
09:00 +27°C° 0 mm 1 mps 657 mmHg 40%
10:00 +28°C° 0 mm 1 mps 657 mmHg 38%
11:00 +30°C° 0 mm 2 mps 658 mmHg 35%
12:00 +31°C° 0 mm 2 mps 658 mmHg 33%
13:00 +31°C° 0.1 mm 2 mps 657 mmHg 32%
14:00 +32°C° 0.1 mm 2 mps 657 mmHg 31%
15:00 +32°C° 0.1 mm 2 mps 657 mmHg 30%
16:00 +32°C° 0 mm 2 mps 657 mmHg 34%
17:00 +31°C° 0 mm 3 mps 657 mmHg 38%
18:00 +30°C° 0 mm 3 mps 656 mmHg 41%
19:00 +29°C° 0 mm 3 mps 656 mmHg 45%
20:00 +27°C° 0 mm 3 mps 656 mmHg 48%
21:00 +25°C° 0 mm 3 mps 656 mmHg 51%
22:00 +24°C° 0 mm 3 mps 656 mmHg 50%
23:00 +24°C° 0 mm 2 mps 656 mmHg 50%

8 July, Wednesday

Time Temperature Precipitation Wind Pressure Humidity
00:00 +24°C° 0 mm 2 mps 656 mmHg 50%
01:00 +23°C° 0 mm 2 mps 656 mmHg 51%
02:00 +23°C° 0 mm 2 mps 656 mmHg 53%
03:00 +21°C° 0 mm 2 mps 656 mmHg 54%
04:00 +23°C° 0 mm 1 mps 656 mmHg 55%
05:00 +23°C° 0 mm 1 mps 656 mmHg 55%
06:00 +24°C° 0 mm 1 mps 656 mmHg 56%
07:00 +26°C° 0 mm 1 mps 656 mmHg 50%
08:00 +27°C° 0 mm 1 mps 657 mmHg 45%
09:00 +29°C° 0 mm 1 mps 657 mmHg 40%
10:00 +30°C° 0 mm 1 mps 657 mmHg 37%
11:00 +32°C° 0 mm 2 mps 657 mmHg 34%
12:00 +34°C° 0 mm 2 mps 657 mmHg 31%
13:00 +34°C° 0 mm 3 mps 657 mmHg 31%
14:00 +34°C° 0 mm 4 mps 657 mmHg 31%
15:00 +34°C° 0 mm 5 mps 657 mmHg 31%
16:00 +32°C° 0.3 mm 5 mps 656 mmHg 37%
17:00 +30°C° 0.3 mm 5 mps 656 mmHg 43%
18:00 +28°C° 0.3 mm 5 mps 655 mmHg 50%
19:00 +27°C° 0.1 mm 4 mps 655 mmHg 51%
20:00 +25°C° 0.1 mm 4 mps 655 mmHg 53%
21:00 +24°C° 0.1 mm 3 mps 656 mmHg 55%
22:00 +24°C° 0 mm 3 mps 656 mmHg 56%
23:00 +24°C° 0 mm 2 mps 656 mmHg 56%

9 July, Thursday

Time Temperature Precipitation Wind Pressure Humidity
00:00 +23°C° 0 mm 2 mps 656 mmHg 56%
01:00 +23°C° 0 mm 2 mps 655 mmHg 58%
02:00 +21°C° 0 mm 2 mps 655 mmHg 59%
03:00 +20°C° 0 mm 2 mps 655 mmHg 60%
04:00 +22°C° 0 mm 1 mps 655 mmHg 60%
05:00 +22°C° 0 mm 1 mps 655 mmHg 60%
06:00 +23°C° 0 mm 1 mps 655 mmHg 60%
07:00 +25°C° 0.1 mm 1 mps 656 mmHg 55%
08:00 +26°C° 0.1 mm 1 mps 656 mmHg 50%
09:00 +28°C° 0.1 mm 1 mps 656 mmHg 45%
10:00 +29°C° 0.4 mm 1 mps 656 mmHg 42%
11:00 +30°C° 0.4 mm 1 mps 656 mmHg 39%
12:00 +31°C° 0.4 mm 1 mps 656 mmHg 36%
13:00 +32°C° 0.3 mm 2 mps 656 mmHg 35%
14:00 +33°C° 0.3 mm 3 mps 656 mmHg 34%
15:00 +34°C° 0.3 mm 4 mps 656 mmHg 32%
16:00 +32°C° 0.3 mm 4 mps 655 mmHg 37%
17:00 +30°C° 0.3 mm 4 mps 655 mmHg 42%
18:00 +29°C° 0.3 mm 5 mps 655 mmHg 48%
19:00 +26°C° 0.4 mm 4 mps 655 mmHg 53%
20:00 +23°C° 0.4 mm 4 mps 655 mmHg 58%
21:00 +21°C° 0.4 mm 3 mps 655 mmHg 64%
22:00 +21°C° 0.3 mm 3 mps 655 mmHg 65%
23:00 +20°C° 0.3 mm 2 mps 655 mmHg 66%
Show more